Regional Weather Roundup
Issued by NWS

Home | Current Version | Previous Version | Text Only | Print | Product List | Glossary On
Versions: 1 2 3 4 5 6 7 8 9 10 11 12 13 14 15 16 17 18 19 20 21 22 23 24 25 26 27 28 29 30 31 32 33 34 35 36 37 38 39 40 41 42 43 44 45 46 47 48 49 50
000
ASUS44 KOUN 271110
RWROK

WEATHER ROUNDUP FOR OKLAHOMA
NATIONAL WEATHER SERVICE NORMAN OK
500 AM CST THU NOV 27 2014

NOTE: "FAIR" INDICATES FEW OR NO CLOUDS BELOW 12,000 FEET WITH NO
      SIGNIFICANT WEATHER AND/OR OBSTRUCTIONS TO VISIBILITY.

OKZ001>007-009>012-014-015-017-271200-
NORTHWEST OKLAHOMA AND THE PANHANDLE

CITY           SKY/WX    TMP DP  RH WIND       PRES   REMARKS
GAGE           MOCLDY    21  16  81 W5        30.46R WCI  15
ENID/WOODRING  CLEAR     27  23  86 CALM      30.49S
$$

OKZ016-021>023-033>039-044-045-271200-
SOUTHWEST OKLAHOMA

CITY           SKY/WX    TMP DP  RH WIND       PRES   REMARKS
LAWTON/REGL    CLEAR     32  25  75 CALM      30.49R
LAWTON/FT SILL CLEAR     31  24  76 N3        30.47S
FREDERICK      CLEAR     31  26  82 S5        30.46S WCI  26
CLINTON        CLEAR     30  22  72 N5        30.48R WCI  25
HOBART         CLEAR     30  25  81 NE6       30.49R WCI  24
ALTUS AFB      CLEAR     30  26  84 N6        30.49R WCI  24
$$

OKZ018>020-024>031-271200-
CENTRAL OKLAHOMA

CITY           SKY/WX    TMP DP  RH WIND       PRES   REMARKS
OKLAHOMA CITY  CLEAR     33  23  66 NE10      30.47F WCI  25
OKC/WILEY POST CLEAR     30  24  78 NE10      30.49F WCI  21
OKC/TINKER AFB CLEAR     31  24  75 N7        30.48F WCI  24
STILLWATER     CLEAR     25  21  85 W3        30.51S
GUTHRIE        CLEAR     25  22  88 CALM      30.51S
$$

OKZ008-013-054>072-271200-
NORTHEAST OKLAHOMA

CITY           SKY/WX    TMP DP  RH WIND       PRES   REMARKS
TULSA          CLEAR     27  22  81 NW8       30.52R WCI  19
TULSA/JONES    CLEAR     30  22  72 N3        30.52S
PONCA CITY     CLEAR     25  19  78 NE6       30.50F WCI  18
BARTLESVILLE   CLEAR     25  20  81 CALM      30.54R
MUSKOGEE       CLEAR     28  22  78 NW7       30.52R WCI  21
$$

OKZ032-040>043-046>053-073>077-271200-
SOUTH CENTRAL/SOUTHEAST OKLAHOMA

CITY           SKY/WX    TMP DP  RH WIND       PRES   REMARKS
ARDMORE/DWNTWN CLEAR     37  27  65 NE8       30.47F WCI  31
MCALESTER      CLEAR     33  25  72 N10       30.50S WCI  25
$$




USA.gov is the U.S. government's official web portal to all federal, state and local government web resources and services.